Regional Weather Roundup
Issued by NWS

Home | Current Version | Previous Version | Graphics & Text | Print | Product List | Glossary On
Versions: 1 2 3 4 5 6 7 8 9 10 11 12 13 14 15 16 17 18 19 20 21 22 23 24 25 26 27 28 29 30 31 32 33 34 35 36 37 38 39 40 41 42 43 44 45 46 47 48 49 50
913
ASUS45 KBOU 231607
RWRCO

WEATHER ROUNDUP FOR COLORADO
NATIONAL WEATHER SERVICE DENVER/BOULDER CO
1000 AM MDT SUN APR 23 2017

NOTE: "FAIR" INDICATES FEW OR NO CLOUDS BELOW 12000 FEET WITH NO
SIGNIFICANT WEATHER AND/OR OBSTRUCTIONS TO VISIBILITY.

COZ001>005-013-030-031-231700-
...NORTHWEST COLORADO...

CITY           SKY/WX    TMP DP  RH WIND       PRES   REMARKS
CRAIG          FAIR      51  28  41 SE8       30.00F
HAYDEN         FAIR      48  23  37 E8        30.03F
MEEKER         FAIR      58  24  27 W6        30.01F
MOUNT WERNER   NOT AVBL
STEAMBOAT SPGS FAIR      46  26  46 CALM      30.03F
WALDEN           N/A     50  18  27 S12       30.06F
$$

COZ006>008-011-231700-
...WEST CENTRAL VALLEYS...

CITY           SKY/WX    TMP DP  RH WIND       PRES   REMARKS
GRAND JUNCTION FAIR      59  23  25 SE17      29.98F
MONTROSE       FAIR      58  22  24 N9        30.05F
EAGLE          SUNNY     45  21  39 CALM      30.11F
RIFLE          FAIR      53  27  36 N5        30.04F
DELTA          FAIR      56  24  28 CALM      30.04F
NUCLA          FAIR      54  19  26 CALM      30.09F
$$

COZ017>023-064>068-231700-
...SOUTHWEST COLORADO...

CITY           SKY/WX    TMP DP  RH WIND       PRES   REMARKS
DURANGO        FAIR      52  26  36 SE14      30.17F
CORTEZ         FAIR      60  29  30 S13G21    30.09F
PAGOSA SPRINGS FAIR      50  21  31 SW6       30.22R
TELLURIDE      FAIR      54  17  23 SW3       30.19F
WOLF CREEK PAS FAIR      32  14  47 SW16G22   30.37R WCI  21
$$

COZ009-010-012-014-032>034-037-058>063-231700-
...CENTRAL COLORADO...

CITY           SKY/WX    TMP DP  RH WIND       PRES   REMARKS
ASPEN          FAIR      49  23  36 N8        30.08F
BUENA VISTA    FAIR      41  26  54 N3        30.15F
COPPER MTN     FAIR      41   0  17 SW8G21    30.25S
BERTHOUD PASS  FAIR      32  23  69 NW23      30.24F WCI  19
COTTONWOOD PAS FAIR      43  23  45 E7        30.18S
GUNNISON       FAIR      44  23  43 VRB5      30.18F
KREMMLING      FAIR      48  27  43 E3        30.11F
LEADVILLE      FAIR      43  11  27 SW3       30.15F
MONARCH PASS   FAIR      32  18  55 SW26      30.38S WCI  18
SALIDA         FAIR      53  24  33 SE7       30.19F
SUNLIGHT       FAIR      39  18  41 SW6G22    30.24S
WILKERSON PASS FAIR      34  19  55 SW16G22   30.23F WCI  23
$$

COZ069>075-231700-
...SAN LUIS VALLEY/SANGRE DE CRISTO MOUNTAINS...

CITY           SKY/WX    TMP DP  RH WIND       PRES   REMARKS
ALAMOSA        FAIR      44  26  49 VRB3      30.20F
LA VETA PASS   FAIR      34  30  86 SW32G41   30.30R WCI  20
SAGUACHE       FAIR      45  28  53 SE7       30.23F
$$

COZ035-036-038>040-231700-
...NORTHERN COLORADO FRONT RANGE...

CITY           SKY/WX    TMP DP  RH WIND       PRES   REMARKS
DENVER INTL AP PTSUNNY   51  33  50 W9        29.97F
DMNS CITY PARK   N/A     52  30  42 S6G12     29.97F
AURORA         PTSUNNY   54  31  41 W7        29.98F
FRONT RANGE AP NOT AVBL
ERIE MUNI ARPT FAIR      46  36  67 CALM      29.98S
BOULDER MUN AP FAIR      48  32  53 SE3       29.97F
CENTENNIAL     PTSUNNY   55  27  34 S6        29.98F
BROOMFIELD     PTSUNNY   46  34  61 SE3       29.99S
FORT COLLINS   FAIR      44  34  67 CALM      29.98F
LONGMONT       FAIR      50  37  59 CALM      29.99F
$$

COZ041-046-047-076>085-087-088-231700-
...PIKES PEAK/PALMER DIVIDE AND SOUTHERN FOOTHILLS...

CITY           SKY/WX    TMP DP  RH WIND       PRES   REMARKS
COLO. SPRINGS  PTSUNNY   46  32  58 SE3       30.04F
A. F. ACADEMY  FAIR      46  29  51 SE3       30.03F
SCHRIEVER AFB  FAIR      44  34  68 S7        30.04F
ELLICOTT       FAIR     N/A N/A N/A S12       30.03F
FALCON         FAIR      46  32  58 S5        30.05F
FORT CARSON    FAIR      47  33  58 CALM      30.03F
LIMON          FAIR      52  36  54 S14G24    30.02F
MONUMENT HILL  FAIR      54  27  35 S10       30.04F
TRINIDAD       FAIR      56  31  38 W10       30.05F
$$

COZ042>045-048>051-090-091-231700-
...NORTHEAST COLORADO...

CITY           SKY/WX    TMP DP  RH WIND       PRES   REMARKS
GREELEY ARPT   FAIR      45  37  73 W5        29.98F
AKRON          FAIR      56  33  42 S22G30    29.98F
BURLINGTON     NOT AVBL
WRAY           NOT AVBL
STERLING       FAIR      55  37  50 S12       29.95F
HOLYOKE        FAIR      59  41  51 S21G28    30.01F
FORT MORGAN    FAIR      53  35  50 S3        29.98F
$$

COZ086-089-092>099-231700-
...SOUTHEAST COLORADO...

CITY           SKY/WX    TMP DP  RH WIND       PRES   REMARKS
PUEBLO         FAIR      49  37  63 NW5       30.03F
LA JUNTA       FAIR      56  35  45 S7        30.03F
LAMAR          FAIR      58  35  42 S22G29    30.04F
SPRINGFIELD      N/A     57  33  40 S32G39    30.09F
$$




USA.gov is the U.S. government's official web portal to all federal, state and local government web resources and services.